EW1914 Weather Reports


Display with metric or nautical units.
time (UTC)temp
F
wind
direction
speed
MPH
gust
MPH
rain 1hr
in
rain 24hr
in
rain mn
in
humidity
%
barometer
mb
20260502220003 69 0.0 0.0 0.00 0.00 0.00 65 1012.3
20260502214959 69 0.0 0.0 0.00 0.00 0.00 65 1012.5
20260502213958 68 0.0 0.0 0.00 0.00 0.00 66 1012.6
20260502213004 67 0.0 0.0 0.00 0.00 0.00 68 1012.7
20260502212000 66 0.0 0.0 0.00 0.00 0.00 69 1013.0
20260502210959 66 0.0 0.0 0.00 0.00 0.00 68 1013.0
20260502205958 64 0.0 0.0 0.00 0.00 0.00 73 1013.3
20260502204958 64 0.0 0.0 0.00 0.00 0.00 70 1013.5
20260502203957 64 0.0 0.0 0.00 0.00 0.00 70 1013.7
20260502203000 63 0.0 0.0 0.00 0.00 0.00 73 1013.7
20260502201957 63 0.0 0.0 0.00 0.00 0.00 73 1013.9
20260502200957 63 0.0 0.0 0.00 0.00 0.00 75 1013.9
20260502200001 62 0.0 0.0 0.00 0.00 0.00 75 1014.0
20260502193957 61 0.0 0.0 0.00 0.00 0.00 74 1014.2
20260502192959 61 0.0 0.0 0.00 0.00 0.00 75 1014.5
20260502191958 60 0.0 0.0 0.00 0.00 0.00 76 1014.7
20260502191000 60 0.0 0.0 0.00 0.00 0.00 75 1014.8
20260502190001 60 0.0 0.0 0.00 0.00 0.00 77 1014.8
20260502184958 59 0.0 0.0 0.00 0.00 0.00 79 1014.8
20260502183959 58 0.0 0.0 0.00 0.00 0.00 81 1014.8
20260502181958 57 0.0 0.0 0.00 0.00 0.00 81 1015.0
20260502180957 57 0.0 0.0 0.00 0.00 0.00 82 1015.1
20260502163958 55 0.0 0.0 0.00 0.00 0.00 85 1015.5
20260502162958 54 0.0 0.0 0.00 0.00 0.00 85 1015.5
20260502161956 54 0.0 0.0 0.00 0.00 0.00 85 1015.6
20260502160957 54 0.0 0.0 0.00 0.00 0.00 85 1015.5
20260502151956 54 0.0 0.0 0.00 0.00 0.00 86 1015.6
20260502150958 53 0.0 0.0 0.00 0.00 0.00 86 1015.7
20260502123002 52 0.0 0.0 0.00 0.00 0.00 86 1015.4
20260502121957 52 0.0 0.0 0.00 0.00 0.00 86 1015.0
20260502114958 52 0.0 0.0 0.00 0.00 0.00 87 1015.2
20260502113959 52 0.0 0.0 0.00 0.00 0.00 88 1015.4
20260502111959 53 0.0 0.0 0.00 0.00 0.00 88 1015.1
20260502110958 53 0.0 0.0 0.00 0.00 0.00 88 1015.1
20260502110005 53 0.0 0.0 0.00 0.00 0.00 89 1015.3
20260502104956 53 0.0 0.0 0.00 0.00 0.00 88 1015.5
20260502102959 53 0.0 0.0 0.00 0.00 0.00 88 1015.3
20260502101956 53 0.0 0.0 0.00 0.00 0.00 87 1015.2
20260502100957 53 0.0 0.0 0.00 0.00 0.00 87 1015.0
20260502070959 56 0.0 0.0 0.00 0.00 0.00 78 1016.1
20260502070006 56 0.0 0.0 0.00 0.00 0.00 78 1016.1
20260502065000 57 0.0 0.0 0.00 0.00 0.00 77 1016.2
20260502063959 57 0.0 0.0 0.00 0.00 0.00 77 1016.3
20260502062000 57 0.0 0.0 0.00 0.00 0.00 77 1016.1
20260502060959 57 0.0 0.0 0.00 0.00 0.00 77 1016.0
20260502060000 58 0.0 0.0 0.00 0.00 0.00 76 1016.0
20260502054958 58 0.0 0.0 0.00 0.00 0.00 76 1015.9
20260502053959 58 0.0 0.0 0.00 0.00 0.00 76 1015.8
20260502053000 58 0.0 0.0 0.00 0.00 0.00 75 1015.8
20260502051959 59 0.0 0.0 0.00 0.00 0.00 74 1015.7
20260502050959 59 0.0 0.0 0.00 0.00 0.00 74 1015.6
20260502050001 60 0.0 0.0 0.00 0.00 0.00 73 1015.6
20260502045000 60 0.0 0.0 0.00 0.00 0.00 72 1015.6
20260502044001 61 0.0 0.0 0.00 0.00 0.00 72 1015.6
20260502042000 62 0.0 0.0 0.00 0.00 0.00 71 1015.2
20260502040959 63 0.0 0.0 0.00 0.00 0.00 70 1015.0
20260502040000 63 0.0 0.0 0.00 0.00 0.00 70 1014.8
20260502035000 64 0.0 0.0 0.00 0.00 0.00 69 1014.6
20260502033002 65 0.0 0.0 0.00 0.00 0.00 67 1014.2
20260502032001 66 0.0 0.0 0.00 0.00 0.00 66 1014.2
20260502031000 67 0.0 0.0 0.00 0.00 0.00 65 1014.0
20260502030004 67 0.0 0.0 0.00 0.00 0.00 65 1013.9
20260502024959 68 0.0 0.0 0.00 0.00 0.00 64 1013.8
20260502023959 68 0.0 0.0 0.00 0.00 0.00 63 1013.6
20260502022959 69 0.0 0.0 0.00 0.00 0.00 62 1013.5
20260502021959 70 0.0 0.0 0.00 0.00 0.00 62 1013.3
20260502020958 70 0.0 0.0 0.00 0.00 0.00 61 1013.3
20260502020000 71 0.0 0.0 0.00 0.00 0.00 61 1013.2
20260502014958 71 0.0 0.0 0.00 0.00 0.00 61 1013.1
20260502013959 72 0.0 0.0 0.00 0.00 0.00 61 1013.1
20260502013000 72 0.0 0.0 0.00 0.00 0.00 60 1013.1
20260502011958 73 0.0 0.0 0.00 0.00 0.00 59 1013.1
20260502010959 73 0.0 0.0 0.00 0.00 0.00 59 1013.0
20260502004959 74 0.0 0.0 0.00 0.00 0.00 57 1013.0
20260502003959 74 0.0 0.0 0.00 0.00 0.00 57 1013.0
20260502003001 75 0.0 0.0 0.00 0.00 0.00 55 1013.1
20260502001958 75 0.0 0.0 0.00 0.00 0.00 52 1013.0
20260502000959 75 0.0 0.0 0.00 0.00 0.00 51 1013.0
20260502000005 75 0.0 0.0 0.00 0.00 0.00 48 1012.9
20260501234958 76 0.0 0.0 0.00 0.00 0.00 49 1012.9
20260501233958 76 0.0 0.0 0.00 0.00 0.00 47 1013.0
20260501232958 76 0.0 0.0 0.00 0.00 0.00 47 1013.1
20260501231957 76 0.0 0.0 0.00 0.00 0.00 45 1013.1
20260501230957 76 0.0 0.0 0.00 0.00 0.00 48 1013.3
20260501230002 76 0.0 0.0 0.00 0.00 0.00 50 1013.4
20260501224000 75 0.0 0.0 0.00 0.00 0.00 52 1013.7
20260501223000 76 0.0 0.0 0.00 0.00 0.00 51 1013.8
20260501221958 75 0.0 0.0 0.00 0.00 0.00 52 1013.8
20260501220959 75 0.0 0.0 0.00 0.00 0.00 51 1014.0